Lamoni, IA

7:51 AM CDT on April 30, 2017 (GMT -0500)
Lamoni Municipal

Weather History for KLWD - September, 2012

Change the Weather History Date:

Thursday, September 20, 2012

  Actual Average Record
Temperature  
Mean Temperature 56 °F 63 °F  
Max Temperature 78 °F 75 °F 90 °F (1948)
Min Temperature 43 °F 52 °F 35 °F (1991)
Degree Days  
Heating Degree Days 9 4  
Month to date heating degree days 49 37  
Since 1 July heating degree days 50 45  
Cooling Degree Days 0 2  
Month to date cooling degree days 75 78  
Year to date cooling degree days 1286 916  
Growing Degree Days 6 (Base 50)    
Moisture  
Dew Point 39 °F    
Average Humidity 58    
Maximum Humidity 89    
Minimum Humidity 26    
Precipitation  
Precipitation 0.00 in 0.11 in 2.64 in (1965)
Month to date precipitation 0.77 2.52  
Sea Level Pressure  
Sea Level Pressure 30.00 in    
Wind  
Wind Speed 7 mph (WNW)    
Max Wind Speed 7 mph    
Max Gust Speed 7 mph    
Visibility 10 miles    
Events      
T = Trace of Precipitation, MM = Missing Value Source: NWS Daily Summary

Daily Weather History Graph

Daily Weather History Graph

Search for Another Location

Airport or City:

Trip Planner

Search our weather history database for the weather conditions in past years. The results will help you decide how hot, cold, wet, or windy it might be!

Date:

Astronomy

Sep. 20, 2012 Rise Set
Actual Time 7:01 AM CDT 7:15 PM CDT
Civil Twilight 6:34 AM CDT 7:42 PM CDT
Nautical Twilight 6:02 AM CDT 8:14 PM CDT
Astronomical Twilight 5:29 AM CDT 8:47 PM CDT
Moon 12:22 PM CDT (9/20) 10:16 PM CDT (9/20)
Length of Visible Light 13h 08m
Length of Day
12h 13m
Waxing Crescent, 27% of the Moon is Illuminated
Sep 20
Waxing Crescent
Sep 22
First Quarter
Sep 29
Full
Oct 8
Last Quarter
Oct 15
New

Hourly Weather History & Observations

Time (CDT) Temp. Windchill Dew Point Humidity Pressure Visibility Wind Dir Wind Speed Gust Speed Precip Events Conditions
12:53 AM 55.9 °F - 37.0 °F 49% 29.96 in 10.0 mi North 6.9 mph - N/A   Clear
1:53 AM 57.0 °F - 37.0 °F 47% 29.96 in 10.0 mi NW 4.6 mph - N/A   Clear
2:53 AM 55.9 °F - 37.0 °F 49% 29.96 in 10.0 mi NW 4.6 mph - N/A   Clear
3:53 AM 54.0 °F - 39.0 °F 57% 29.96 in 10.0 mi WNW 4.6 mph - N/A   Clear
4:53 AM 52.0 °F - 39.9 °F 63% 29.97 in 10.0 mi WNW 5.8 mph - N/A   Unknown
5:53 AM 50.0 °F - 39.0 °F 66% 29.98 in 10.0 mi WNW 6.9 mph - N/A   Unknown
6:53 AM 43.0 °F 38.8 °F 39.0 °F 86% 30.00 in 10.0 mi WNW 6.9 mph - N/A   Unknown
7:53 AM 50.0 °F - 39.0 °F 66% 30.01 in 10.0 mi West 6.9 mph - N/A   Unknown
8:53 AM 57.9 °F - 41.0 °F 53% 30.02 in 10.0 mi WNW 6.9 mph - N/A   Unknown
9:53 AM 63.0 °F - 36.0 °F 37% 30.02 in 10.0 mi NW 10.4 mph - N/A   Clear
10:09 AM 64.4 °F - 35.6 °F 34% 30.04 in 0.5 mi West 9.2 mph - N/A   Haze
10:21 AM 64.4 °F - 37.4 °F 37% 30.03 in - West 10.4 mph - N/A   Clear
10:53 AM 66.9 °F - 36.0 °F 32% 30.03 in - WNW 10.4 mph - N/A   Clear
11:53 AM 66.9 °F - 32.0 °F 27% 30.04 in 10.0 mi North - - N/A   Unknown
12:53 PM 69.1 °F - 33.1 °F 26% 30.04 in 10.0 mi WNW 16.1 mph 23.0 mph N/A   Unknown
1:53 PM 68.0 °F - 35.1 °F 30% 30.02 in 10.0 mi NW 13.8 mph - N/A   Clear
2:53 PM 68.0 °F - 34.0 °F 28% 30.00 in 10.0 mi WNW 13.8 mph - N/A   Clear
3:53 PM 69.1 °F - 35.1 °F 29% 29.99 in 10.0 mi WNW 11.5 mph - N/A   Clear
4:53 PM 68.0 °F - 37.9 °F 33% 29.98 in 10.0 mi West 9.2 mph - N/A   Clear
5:53 PM 66.9 °F - 39.9 °F 37% 29.98 in 10.0 mi WNW 4.6 mph - N/A   Clear
6:53 PM 64.0 °F - 43.0 °F 46% 29.99 in 10.0 mi SW 3.5 mph - N/A   Scattered Clouds
7:53 PM 63.0 °F - 44.1 °F 50% 29.98 in 10.0 mi Calm Calm - N/A   Clear
8:53 PM 64.0 °F - 41.0 °F 43% 29.99 in 10.0 mi Calm Calm - N/A   Partly Cloudy
9:53 PM 60.1 °F - 46.9 °F 62% 29.99 in 10.0 mi SW 3.5 mph - N/A   Clear
10:53 PM 60.1 °F - 43.0 °F 53% 29.98 in - SSW 4.6 mph - N/A   Unknown
11:53 PM 57.9 °F - 44.1 °F 60% 29.97 in 10.0 mi SSW 5.8 mph - N/A   Clear